Year,Month,Day,Hour,Minute,Value (Times are PST for temperature in C)
2017,08,02,00,00,23.90
2017,08,02,00,01,23.90
2017,08,02,00,02,23.90
2017,08,02,00,03,23.90
2017,08,02,00,04,23.90
2017,08,02,00,05,23.90
2017,08,02,00,06,23.90
2017,08,02,00,07,23.90
2017,08,02,00,08,23.90
2017,08,02,00,09,23.90
2017,08,02,00,10,23.90
2017,08,02,00,11,23.90
2017,08,02,00,12,23.90
2017,08,02,00,13,23.90
2017,08,02,00,14,23.80
2017,08,02,00,15,23.80
2017,08,02,00,16,23.80
2017,08,02,00,17,23.80
2017,08,02,00,18,23.80
2017,08,02,00,19,23.90
2017,08,02,00,20,23.90
2017,08,02,00,21,23.90
2017,08,02,00,22,23.90
2017,08,02,00,23,23.90
2017,08,02,00,24,23.90
2017,08,02,00,25,23.90
2017,08,02,00,26,23.90
2017,08,02,00,27,23.90
2017,08,02,00,28,23.90
2017,08,02,00,29,23.90
2017,08,02,00,30,23.90
2017,08,02,00,31,23.90
2017,08,02,00,32,23.80
2017,08,02,00,33,23.80
2017,08,02,00,34,23.70
2017,08,02,00,35,23.70
2017,08,02,00,36,23.70
2017,08,02,00,37,23.70
2017,08,02,00,38,23.60
2017,08,02,00,39,23.60
2017,08,02,00,40,23.50
2017,08,02,00,41,23.50
2017,08,02,00,42,23.40
2017,08,02,00,43,23.40
2017,08,02,00,44,23.40
2017,08,02,00,45,23.40
2017,08,02,00,46,23.40
2017,08,02,00,47,23.40
2017,08,02,00,48,23.40
2017,08,02,00,49,23.40
2017,08,02,00,50,23.40
2017,08,02,00,51,23.30
2017,08,02,00,52,23.40
2017,08,02,00,53,23.40
2017,08,02,00,54,23.40
2017,08,02,00,55,23.40
2017,08,02,00,56,23.40
2017,08,02,00,57,23.40
2017,08,02,00,58,23.40
2017,08,02,00,59,23.40
2017,08,02,01,00,23.40
2017,08,02,01,01,23.40
2017,08,02,01,02,23.40
2017,08,02,01,03,23.30
2017,08,02,01,04,23.30
2017,08,02,01,05,23.30
2017,08,02,01,06,23.30
2017,08,02,01,07,23.30
2017,08,02,01,08,23.30
2017,08,02,01,09,23.30
2017,08,02,01,10,23.30
2017,08,02,01,11,23.30
2017,08,02,01,12,23.30
2017,08,02,01,13,23.30
2017,08,02,01,14,23.30
2017,08,02,01,15,23.30
2017,08,02,01,16,23.30
2017,08,02,01,17,23.30
2017,08,02,01,18,23.30
2017,08,02,01,19,23.30
2017,08,02,01,20,23.30
2017,08,02,01,21,23.30
2017,08,02,01,22,23.40
2017,08,02,01,23,23.40
2017,08,02,01,24,23.40
2017,08,02,01,25,23.40
2017,08,02,01,26,23.40
2017,08,02,01,27,23.40
2017,08,02,01,28,23.50
2017,08,02,01,29,23.50
2017,08,02,01,30,23.60
2017,08,02,01,31,23.60
2017,08,02,01,32,23.60
2017,08,02,01,33,23.60
2017,08,02,01,34,23.60
2017,08,02,01,35,23.60
2017,08,02,01,36,23.60
2017,08,02,01,37,23.60
2017,08,02,01,38,23.60
2017,08,02,01,39,23.60
2017,08,02,01,40,23.50
2017,08,02,01,41,23.40
2017,08,02,01,42,23.30
2017,08,02,01,43,23.30
2017,08,02,01,44,23.20
2017,08,02,01,45,23.20
2017,08,02,01,46,23.20
2017,08,02,01,47,23.20
2017,08,02,01,48,23.20
2017,08,02,01,49,23.20
2017,08,02,01,50,23.10
2017,08,02,01,51,23.10
2017,08,02,01,52,23.20
2017,08,02,01,53,23.20
2017,08,02,01,54,23.30
2017,08,02,01,55,23.30
2017,08,02,01,56,23.40
2017,08,02,01,57,23.40
2017,08,02,01,58,23.40
2017,08,02,01,59,23.40
2017,08,02,02,00,23.40
2017,08,02,02,01,23.50
2017,08,02,02,02,23.50
2017,08,02,02,03,23.60
2017,08,02,02,04,23.60
2017,08,02,02,05,23.60
2017,08,02,02,06,23.60
2017,08,02,02,07,23.60
2017,08,02,02,08,23.60
2017,08,02,02,09,23.70
2017,08,02,02,10,23.70
2017,08,02,02,11,23.70
2017,08,02,02,12,23.70
2017,08,02,02,13,23.70
2017,08,02,02,14,23.70
2017,08,02,02,15,23.70
2017,08,02,02,16,23.80
2017,08,02,02,17,23.80
2017,08,02,02,18,23.80
2017,08,02,02,19,23.80
2017,08,02,02,20,23.80
2017,08,02,02,21,23.80
2017,08,02,02,22,23.80
2017,08,02,02,23,23.80
2017,08,02,02,24,23.80
2017,08,02,02,25,23.80
2017,08,02,02,26,23.80
2017,08,02,02,27,23.90
2017,08,02,02,28,23.90
2017,08,02,02,29,23.90
2017,08,02,02,30,23.90
2017,08,02,02,31,23.90
2017,08,02,02,32,23.80
2017,08,02,02,33,23.80
2017,08,02,02,34,23.80
2017,08,02,02,35,23.80
2017,08,02,02,36,23.80
2017,08,02,02,37,23.80
2017,08,02,02,38,23.80
2017,08,02,02,39,23.80
2017,08,02,02,40,23.70
2017,08,02,02,41,23.70
2017,08,02,02,42,23.70
2017,08,02,02,43,23.70
2017,08,02,02,44,23.70
2017,08,02,02,45,23.70
2017,08,02,02,46,23.60
2017,08,02,02,47,23.70
2017,08,02,02,48,23.70
2017,08,02,02,49,23.70
2017,08,02,02,50,23.70
2017,08,02,02,51,23.70
2017,08,02,02,52,23.70
2017,08,02,02,53,23.70
2017,08,02,02,54,23.60
2017,08,02,02,55,23.60
2017,08,02,02,56,23.50
2017,08,02,02,57,23.50
2017,08,02,02,58,23.40
2017,08,02,02,59,23.40
2017,08,02,03,00,23.40
2017,08,02,03,01,23.40
2017,08,02,03,02,23.40
2017,08,02,03,03,23.40
2017,08,02,03,04,23.30
2017,08,02,03,05,23.30
2017,08,02,03,06,23.30
2017,08,02,03,07,23.30
2017,08,02,03,08,23.30
2017,08,02,03,09,23.40
2017,08,02,03,10,23.40
2017,08,02,03,11,23.30
2017,08,02,03,12,23.30
2017,08,02,03,13,23.30
2017,08,02,03,14,23.30
2017,08,02,03,15,23.30
2017,08,02,03,16,23.40
2017,08,02,03,17,23.50
2017,08,02,03,18,23.50
2017,08,02,03,19,23.60
2017,08,02,03,20,23.60
2017,08,02,03,21,23.60
2017,08,02,03,22,23.60
2017,08,02,03,23,23.60
2017,08,02,03,24,23.70
2017,08,02,03,25,23.70
2017,08,02,03,26,23.60
2017,08,02,03,27,23.60
2017,08,02,03,28,23.60
2017,08,02,03,29,23.60
2017,08,02,03,30,23.70
2017,08,02,03,31,23.70
2017,08,02,03,32,23.70
2017,08,02,03,33,23.70
2017,08,02,03,34,23.70
2017,08,02,03,35,23.60
2017,08,02,03,36,23.60
2017,08,02,03,37,23.60
2017,08,02,03,38,23.60
2017,08,02,03,39,23.60
2017,08,02,03,40,23.70
2017,08,02,03,41,23.70
2017,08,02,03,42,23.60
2017,08,02,03,43,23.70
2017,08,02,03,44,23.70
2017,08,02,03,45,23.70
2017,08,02,03,46,23.70
2017,08,02,03,47,23.70
2017,08,02,03,48,23.70
2017,08,02,03,49,23.70
2017,08,02,03,50,23.70
2017,08,02,03,51,23.70
2017,08,02,03,52,23.70
2017,08,02,03,53,23.60
2017,08,02,03,54,23.60
2017,08,02,03,55,23.60
2017,08,02,03,56,23.60
2017,08,02,03,57,23.50
2017,08,02,03,58,23.50
2017,08,02,03,59,23.40
2017,08,02,04,00,23.40
2017,08,02,04,01,23.40
2017,08,02,04,02,23.40
2017,08,02,04,03,23.40
2017,08,02,04,04,23.40
2017,08,02,04,05,23.40
2017,08,02,04,06,23.40
2017,08,02,04,07,23.40
2017,08,02,04,08,23.40
2017,08,02,04,09,23.30
2017,08,02,04,10,23.30
2017,08,02,04,11,23.30
2017,08,02,04,12,23.20
2017,08,02,04,13,23.20
2017,08,02,04,14,23.20
2017,08,02,04,15,23.20
2017,08,02,04,16,23.20
2017,08,02,04,17,23.20
2017,08,02,04,18,23.20
2017,08,02,04,19,23.20
2017,08,02,04,20,23.20
2017,08,02,04,21,23.30
2017,08,02,04,22,23.30
2017,08,02,04,23,23.30
2017,08,02,04,24,23.30
2017,08,02,04,25,23.20
2017,08,02,04,26,23.20
2017,08,02,04,27,23.10
2017,08,02,04,28,23.00
2017,08,02,04,29,23.00
2017,08,02,04,30,22.90
2017,08,02,04,31,22.90
2017,08,02,04,32,22.90
2017,08,02,04,33,22.90
2017,08,02,04,34,22.90
2017,08,02,04,35,22.90
2017,08,02,04,36,22.80
2017,08,02,04,37,22.80
2017,08,02,04,38,22.80
2017,08,02,04,39,22.80
2017,08,02,04,40,22.80
2017,08,02,04,41,22.80
2017,08,02,04,42,22.70
2017,08,02,04,43,22.70
2017,08,02,04,44,22.70
2017,08,02,04,45,22.70
2017,08,02,04,46,22.70
2017,08,02,04,47,22.70
2017,08,02,04,48,22.70
2017,08,02,04,49,22.60
2017,08,02,04,50,22.70
2017,08,02,04,51,22.80
2017,08,02,04,52,22.80
2017,08,02,04,53,22.90
2017,08,02,04,54,22.90
2017,08,02,04,55,22.80
2017,08,02,04,56,22.80
2017,08,02,04,57,22.80
2017,08,02,04,58,22.80
2017,08,02,04,59,22.80
2017,08,02,05,00,22.80
2017,08,02,05,01,22.90
2017,08,02,05,02,22.90
2017,08,02,05,03,23.00
2017,08,02,05,04,23.10
2017,08,02,05,05,23.20
2017,08,02,05,06,23.20
2017,08,02,05,07,23.20
2017,08,02,05,08,23.20
2017,08,02,05,09,23.20
2017,08,02,05,10,23.20
2017,08,02,05,11,23.20
2017,08,02,05,12,23.30
2017,08,02,05,13,23.30
2017,08,02,05,14,23.30
2017,08,02,05,15,23.30
2017,08,02,05,16,23.30
2017,08,02,05,17,23.30
2017,08,02,05,18,23.30
2017,08,02,05,19,23.30
2017,08,02,05,20,23.30
2017,08,02,05,21,23.30
2017,08,02,05,22,23.30
2017,08,02,05,23,23.30
2017,08,02,05,24,23.30
2017,08,02,05,25,23.30
2017,08,02,05,26,23.30
2017,08,02,05,27,23.20
2017,08,02,05,28,23.20
2017,08,02,05,29,23.20
2017,08,02,05,30,23.10
2017,08,02,05,31,23.10
2017,08,02,05,32,23.20
2017,08,02,05,33,23.20
2017,08,02,05,34,23.20
2017,08,02,05,35,23.10
2017,08,02,05,36,23.20
2017,08,02,05,37,23.10
2017,08,02,05,38,23.10
2017,08,02,05,39,23.10
2017,08,02,05,40,23.10
2017,08,02,05,41,23.10
2017,08,02,05,42,23.10
2017,08,02,05,43,23.00
2017,08,02,05,44,23.00
2017,08,02,05,45,23.00
2017,08,02,05,46,23.00
2017,08,02,05,47,22.90
2017,08,02,05,48,22.90
2017,08,02,05,49,22.90
2017,08,02,05,50,22.90
2017,08,02,05,51,22.90
2017,08,02,05,52,22.90
2017,08,02,05,53,22.90
2017,08,02,05,54,22.90
2017,08,02,05,55,22.80
2017,08,02,05,56,22.80
2017,08,02,05,57,22.80
2017,08,02,05,58,22.90
2017,08,02,05,59,22.90
2017,08,02,06,00,22.90
2017,08,02,06,01,22.80
2017,08,02,06,02,22.80
2017,08,02,06,03,22.80
2017,08,02,06,04,22.70
2017,08,02,06,05,22.70
2017,08,02,06,06,22.70
2017,08,02,06,07,22.70
2017,08,02,06,08,22.80
2017,08,02,06,09,22.80
2017,08,02,06,10,22.80
2017,08,02,06,11,22.80
2017,08,02,06,12,22.90
2017,08,02,06,13,22.90
2017,08,02,06,14,22.90
2017,08,02,06,15,22.90
2017,08,02,06,16,22.80
2017,08,02,06,17,22.80
2017,08,02,06,18,22.80
2017,08,02,06,19,22.70
2017,08,02,06,20,22.70
2017,08,02,06,21,22.70
2017,08,02,06,22,22.70
2017,08,02,06,23,22.60
2017,08,02,06,24,22.60
2017,08,02,06,25,22.50
2017,08,02,06,26,22.50
2017,08,02,06,27,22.40
2017,08,02,06,28,22.40
2017,08,02,06,29,22.40
2017,08,02,06,30,22.40
2017,08,02,06,31,22.40
2017,08,02,06,32,22.40
2017,08,02,06,33,22.40
2017,08,02,06,34,22.40
2017,08,02,06,35,22.40
2017,08,02,06,36,22.30
2017,08,02,06,37,22.20
2017,08,02,06,38,22.20
2017,08,02,06,39,22.00
2017,08,02,06,40,21.90
2017,08,02,06,41,21.90
2017,08,02,06,42,21.80
2017,08,02,06,43,21.80
2017,08,02,06,44,21.80
2017,08,02,06,45,21.70
2017,08,02,06,46,21.70
2017,08,02,06,47,21.60
2017,08,02,06,48,21.50
2017,08,02,06,49,21.50
2017,08,02,06,50,21.50
2017,08,02,06,51,21.40
2017,08,02,06,52,21.40
2017,08,02,06,53,21.40
2017,08,02,06,54,21.40
2017,08,02,06,55,21.40
2017,08,02,06,56,21.30
2017,08,02,06,57,21.30
2017,08,02,06,58,21.30
2017,08,02,06,59,21.20
2017,08,02,07,00,21.30
2017,08,02,07,01,21.30
2017,08,02,07,02,21.30
2017,08,02,07,03,21.30
2017,08,02,07,04,21.40
2017,08,02,07,05,21.40
2017,08,02,07,06,21.40
2017,08,02,07,07,21.40
2017,08,02,07,08,21.40
2017,08,02,07,09,21.40
2017,08,02,07,10,21.40
2017,08,02,07,11,21.40
2017,08,02,07,12,21.40
2017,08,02,07,13,21.40
2017,08,02,07,14,21.30
2017,08,02,07,15,21.30
2017,08,02,07,16,21.30
2017,08,02,07,17,21.40
2017,08,02,07,18,21.40
2017,08,02,07,19,21.50
2017,08,02,07,20,21.50
2017,08,02,07,21,21.50
2017,08,02,07,22,21.50
2017,08,02,07,23,21.50
2017,08,02,07,24,21.50
2017,08,02,07,25,21.50
2017,08,02,07,26,21.40
2017,08,02,07,27,21.40
2017,08,02,07,28,21.30
2017,08,02,07,29,21.30
2017,08,02,07,30,21.30
2017,08,02,07,31,21.30
2017,08,02,07,32,21.30
2017,08,02,07,33,21.30
2017,08,02,07,34,21.30
2017,08,02,07,35,21.30
2017,08,02,07,36,21.30
2017,08,02,07,37,21.30
2017,08,02,07,38,21.30
2017,08,02,07,39,21.30
2017,08,02,07,40,21.30
2017,08,02,07,41,21.30
2017,08,02,07,42,21.30
2017,08,02,07,43,21.30
2017,08,02,07,44,21.30
2017,08,02,07,45,21.30
2017,08,02,07,46,21.40
2017,08,02,07,47,21.50
2017,08,02,07,48,21.50
2017,08,02,07,49,21.60
2017,08,02,07,50,21.60
2017,08,02,07,51,21.60
2017,08,02,07,52,21.70
2017,08,02,07,53,21.80
2017,08,02,07,54,21.90
2017,08,02,07,55,21.90
2017,08,02,07,56,21.90
2017,08,02,07,57,21.90
2017,08,02,07,58,21.90
2017,08,02,07,59,21.90
2017,08,02,08,00,21.90
2017,08,02,08,01,21.90
2017,08,02,08,02,22.00
2017,08,02,08,03,22.00
2017,08,02,08,04,22.10
2017,08,02,08,05,22.20
2017,08,02,08,06,22.20
2017,08,02,08,07,22.30
2017,08,02,08,08,22.40
2017,08,02,08,09,22.50
2017,08,02,08,10,22.60
2017,08,02,08,11,22.70
2017,08,02,08,12,22.80
2017,08,02,08,13,22.80
2017,08,02,08,14,22.80
2017,08,02,08,15,22.80
2017,08,02,08,16,22.90
2017,08,02,08,17,22.90
2017,08,02,08,18,22.90
2017,08,02,08,19,23.00
2017,08,02,08,20,23.00
2017,08,02,08,21,23.00
2017,08,02,08,22,23.10
2017,08,02,08,23,23.10
2017,08,02,08,24,23.20
2017,08,02,08,25,23.20
2017,08,02,08,26,23.30
2017,08,02,08,27,23.30
2017,08,02,08,28,23.30
2017,08,02,08,29,23.30
2017,08,02,08,30,23.40
2017,08,02,08,31,23.40
2017,08,02,08,32,23.40
2017,08,02,08,33,23.40
2017,08,02,08,34,23.40
2017,08,02,08,35,23.40
2017,08,02,08,36,23.40
2017,08,02,08,37,23.40
2017,08,02,08,38,23.40
2017,08,02,08,39,23.40
2017,08,02,08,40,23.50
2017,08,02,08,41,23.60
2017,08,02,08,42,23.60
2017,08,02,08,43,23.60
2017,08,02,08,44,23.60
2017,08,02,08,45,23.60
2017,08,02,08,46,23.60
2017,08,02,08,47,23.60
2017,08,02,08,48,23.60
2017,08,02,08,49,23.50
2017,08,02,08,50,23.50
2017,08,02,08,51,23.60
2017,08,02,08,52,23.70
2017,08,02,08,53,23.80
2017,08,02,08,54,23.80
2017,08,02,08,55,23.80
2017,08,02,08,56,23.80
2017,08,02,08,57,23.80
2017,08,02,08,58,23.90
2017,08,02,08,59,23.90
2017,08,02,09,00,23.90
2017,08,02,09,01,23.90
2017,08,02,09,02,23.90
2017,08,02,09,03,23.90
2017,08,02,09,04,23.90
2017,08,02,09,05,24.00
2017,08,02,09,06,24.00
2017,08,02,09,07,24.10
2017,08,02,09,08,24.10
2017,08,02,09,09,24.10
2017,08,02,09,10,24.20
2017,08,02,09,11,24.20
2017,08,02,09,12,24.30
2017,08,02,09,13,24.30
2017,08,02,09,14,24.30
2017,08,02,09,15,24.40
2017,08,02,09,16,24.30
2017,08,02,09,17,24.40
2017,08,02,09,18,24.40
2017,08,02,09,19,24.40
2017,08,02,09,20,24.40
2017,08,02,09,21,24.40
2017,08,02,09,22,24.40
2017,08,02,09,23,24.40
2017,08,02,09,24,24.40
2017,08,02,09,25,24.40
2017,08,02,09,26,24.40
2017,08,02,09,27,24.40
2017,08,02,09,28,24.40
2017,08,02,09,29,24.40
2017,08,02,09,30,24.40
2017,08,02,09,31,24.40
2017,08,02,09,32,24.40
2017,08,02,09,33,24.40
2017,08,02,09,34,24.40
2017,08,02,09,35,24.40
2017,08,02,09,36,24.40
2017,08,02,09,37,24.40
2017,08,02,09,38,24.40
2017,08,02,09,39,24.50
2017,08,02,09,40,24.60
2017,08,02,09,41,24.70
2017,08,02,09,42,24.70
2017,08,02,09,43,24.80
2017,08,02,09,44,24.80
2017,08,02,09,45,24.80
2017,08,02,09,46,24.80
2017,08,02,09,47,24.80
2017,08,02,09,48,24.80
2017,08,02,09,49,24.90
2017,08,02,09,50,24.90
2017,08,02,09,51,24.90
2017,08,02,09,52,24.90
2017,08,02,09,53,24.90
2017,08,02,09,54,25.00
2017,08,02,09,55,25.10
2017,08,02,09,56,25.10
2017,08,02,09,57,25.20
2017,08,02,09,58,25.30
2017,08,02,09,59,25.40
2017,08,02,10,00,25.40
2017,08,02,10,01,25.40
2017,08,02,10,02,25.40
2017,08,02,10,03,25.50
2017,08,02,10,04,25.50
2017,08,02,10,05,25.60
2017,08,02,10,06,25.60
2017,08,02,10,07,25.60
2017,08,02,10,08,25.60
2017,08,02,10,09,25.60
2017,08,02,10,10,25.70
2017,08,02,10,11,25.70
2017,08,02,10,12,25.70
2017,08,02,10,13,25.70
2017,08,02,10,14,25.70
2017,08,02,10,15,25.70
2017,08,02,10,16,25.70
2017,08,02,10,17,25.70
2017,08,02,10,18,25.70
2017,08,02,10,19,25.70
2017,08,02,10,20,25.70
2017,08,02,10,21,25.70
2017,08,02,10,22,25.70
2017,08,02,10,23,25.70
2017,08,02,10,24,25.70
2017,08,02,10,25,25.70
2017,08,02,10,26,25.70
2017,08,02,10,27,25.70
2017,08,02,10,28,25.70
2017,08,02,10,29,25.80
2017,08,02,10,30,25.80
2017,08,02,10,31,25.80
2017,08,02,10,32,25.80
2017,08,02,10,33,25.90
2017,08,02,10,34,26.00
2017,08,02,10,35,26.00
2017,08,02,10,36,26.10
2017,08,02,10,37,26.20
2017,08,02,10,38,26.20
2017,08,02,10,39,26.20
2017,08,02,10,40,26.20
2017,08,02,10,41,26.20
2017,08,02,10,42,26.30
2017,08,02,10,43,26.30
2017,08,02,10,44,26.30
2017,08,02,10,45,26.40
2017,08,02,10,46,26.40
2017,08,02,10,47,26.40
2017,08,02,10,48,26.50
2017,08,02,10,49,26.60
2017,08,02,10,50,26.60
2017,08,02,10,51,26.70
2017,08,02,10,52,26.70
2017,08,02,10,53,26.70
2017,08,02,10,54,26.80
2017,08,02,10,55,26.90
2017,08,02,10,56,27.00
2017,08,02,10,57,27.10
2017,08,02,10,58,27.20
2017,08,02,10,59,27.20
2017,08,02,11,00,27.30
2017,08,02,11,01,27.40
2017,08,02,11,02,27.40
2017,08,02,11,03,27.50
2017,08,02,11,04,27.50
2017,08,02,11,05,27.50
2017,08,02,11,06,27.50
2017,08,02,11,07,27.50
2017,08,02,11,08,27.50
2017,08,02,11,09,27.40
2017,08,02,11,10,27.40
2017,08,02,11,11,27.50
2017,08,02,11,12,27.50
2017,08,02,11,13,27.60
2017,08,02,11,14,27.60
2017,08,02,11,15,27.60
2017,08,02,11,16,27.60
2017,08,02,11,17,27.70
2017,08,02,11,18,27.70
2017,08,02,11,19,27.70
2017,08,02,11,20,27.70
2017,08,02,11,21,27.80
2017,08,02,11,22,27.80
2017,08,02,11,23,27.80
2017,08,02,11,24,27.90
2017,08,02,11,25,27.90
2017,08,02,11,26,27.90
2017,08,02,11,27,27.90
2017,08,02,11,28,28.00
2017,08,02,11,29,28.10
2017,08,02,11,30,28.20
2017,08,02,11,31,28.20
2017,08,02,11,32,28.30
2017,08,02,11,33,28.30
2017,08,02,11,34,28.30
2017,08,02,11,35,28.30
2017,08,02,11,36,28.40
2017,08,02,11,37,28.40
2017,08,02,11,38,28.40
2017,08,02,11,39,28.50
2017,08,02,11,40,28.60
2017,08,02,11,41,28.70
2017,08,02,11,42,28.70
2017,08,02,11,43,28.70
2017,08,02,11,44,28.70
2017,08,02,11,45,28.70
2017,08,02,11,46,28.80
2017,08,02,11,47,28.80
2017,08,02,11,48,28.80
2017,08,02,11,49,28.80
2017,08,02,11,50,28.90
2017,08,02,11,51,28.90
2017,08,02,11,52,29.00
2017,08,02,11,53,29.00
2017,08,02,11,54,29.10
2017,08,02,11,55,29.20
2017,08,02,11,56,29.20
2017,08,02,11,57,29.20
2017,08,02,11,58,29.30
2017,08,02,11,59,29.30
2017,08,02,12,00,29.40
2017,08,02,12,01,29.50
2017,08,02,12,02,29.60
2017,08,02,12,03,29.60
2017,08,02,12,04,29.60
2017,08,02,12,05,29.70
2017,08,02,12,06,29.70
2017,08,02,12,07,29.80
2017,08,02,12,08,29.80
2017,08,02,12,09,29.80
2017,08,02,12,10,29.80
2017,08,02,12,11,29.80
2017,08,02,12,12,29.80
2017,08,02,12,13,29.80
2017,08,02,12,14,29.80
2017,08,02,12,15,29.90
2017,08,02,12,16,29.90
2017,08,02,12,17,30.00
2017,08,02,12,18,30.10
2017,08,02,12,19,30.10
2017,08,02,12,20,30.20
2017,08,02,12,21,30.30
2017,08,02,12,22,30.30
2017,08,02,12,23,30.40
2017,08,02,12,24,30.40
2017,08,02,12,25,30.40
2017,08,02,12,26,30.30
2017,08,02,12,27,30.20
2017,08,02,12,28,30.30
2017,08,02,12,29,30.30
2017,08,02,12,30,30.30
2017,08,02,12,31,30.30
2017,08,02,12,32,30.40
2017,08,02,12,33,30.40
2017,08,02,12,34,30.50
2017,08,02,12,35,30.60
2017,08,02,12,36,30.60
2017,08,02,12,37,30.60
2017,08,02,12,38,30.60
2017,08,02,12,39,30.70
2017,08,02,12,40,30.70
2017,08,02,12,41,30.80
2017,08,02,12,42,30.90
2017,08,02,12,43,30.90
2017,08,02,12,44,30.90
2017,08,02,12,45,30.90
2017,08,02,12,46,30.80
2017,08,02,12,47,30.90
2017,08,02,12,48,30.90
2017,08,02,12,49,30.90
2017,08,02,12,50,31.00
2017,08,02,12,51,31.00
2017,08,02,12,52,31.00
2017,08,02,12,53,31.10
2017,08,02,12,54,31.00
2017,08,02,12,55,31.00
2017,08,02,12,56,31.10
2017,08,02,12,57,31.10
2017,08,02,12,58,31.20
2017,08,02,12,59,31.20
2017,08,02,13,00,31.20
2017,08,02,13,01,31.30
2017,08,02,13,02,31.30
2017,08,02,13,03,31.30
2017,08,02,13,04,31.30
2017,08,02,13,05,31.30
2017,08,02,13,06,31.30
2017,08,02,13,07,31.40
2017,08,02,13,08,31.40
2017,08,02,13,09,31.50
2017,08,02,13,10,31.60
2017,08,02,13,11,31.60
2017,08,02,13,12,31.60
2017,08,02,13,13,31.60
2017,08,02,13,14,31.60
2017,08,02,13,15,31.60
2017,08,02,13,16,31.70
2017,08,02,13,17,31.70
2017,08,02,13,18,31.70
2017,08,02,13,19,31.70
2017,08,02,13,20,31.80
2017,08,02,13,21,31.80
2017,08,02,13,22,31.70
2017,08,02,13,23,31.80
2017,08,02,13,24,31.80
2017,08,02,13,25,31.80
2017,08,02,13,26,31.90
2017,08,02,13,27,32.00
2017,08,02,13,28,32.00
2017,08,02,13,29,32.00
2017,08,02,13,30,32.10
2017,08,02,13,31,32.20
2017,08,02,13,32,32.20
2017,08,02,13,33,32.20
2017,08,02,13,34,32.20
2017,08,02,13,35,32.30
2017,08,02,13,36,32.30
2017,08,02,13,37,32.30
2017,08,02,13,38,32.40
2017,08,02,13,39,32.40
2017,08,02,13,40,32.40
2017,08,02,13,41,32.50
2017,08,02,13,42,32.50
2017,08,02,13,43,32.50
2017,08,02,13,44,32.50
2017,08,02,13,45,32.60
2017,08,02,13,46,32.60
2017,08,02,13,47,32.60
2017,08,02,13,48,32.60
2017,08,02,13,49,32.60
2017,08,02,13,50,32.70
2017,08,02,13,51,32.70
2017,08,02,13,52,32.70
2017,08,02,13,53,32.70
2017,08,02,13,54,32.60
2017,08,02,13,55,32.70
2017,08,02,13,56,32.70
2017,08,02,13,57,32.70
2017,08,02,13,58,32.70
2017,08,02,13,59,32.70
2017,08,02,14,00,32.80
2017,08,02,14,01,32.80
2017,08,02,14,02,32.80
2017,08,02,14,03,32.90
2017,08,02,14,04,32.90
2017,08,02,14,05,32.90
2017,08,02,14,06,33.00
2017,08,02,14,07,33.10
2017,08,02,14,08,33.20
2017,08,02,14,09,33.30
2017,08,02,14,10,33.30
2017,08,02,14,11,33.30
2017,08,02,14,12,33.30
2017,08,02,14,13,33.30
2017,08,02,14,14,33.30
2017,08,02,14,15,33.30
2017,08,02,14,16,33.30
2017,08,02,14,17,33.30
2017,08,02,14,18,33.30
2017,08,02,14,19,33.30
2017,08,02,14,20,33.40
2017,08,02,14,21,33.40
2017,08,02,14,22,33.30
2017,08,02,14,23,33.30
2017,08,02,14,24,33.30
2017,08,02,14,25,33.30
2017,08,02,14,26,33.40
2017,08,02,14,27,33.40
2017,08,02,14,28,33.40
2017,08,02,14,29,33.50
2017,08,02,14,30,33.50
2017,08,02,14,31,33.40
2017,08,02,14,32,33.40
2017,08,02,14,33,33.40
2017,08,02,14,34,33.40
2017,08,02,14,35,33.40
2017,08,02,14,36,33.50
2017,08,02,14,37,33.50
2017,08,02,14,38,33.50
2017,08,02,14,39,33.60
2017,08,02,14,40,33.60
2017,08,02,14,41,33.60
2017,08,02,14,42,33.50
2017,08,02,14,43,33.50
2017,08,02,14,44,33.50
2017,08,02,14,45,33.40
2017,08,02,14,46,33.50
2017,08,02,14,47,33.50
2017,08,02,14,48,33.50
2017,08,02,14,49,33.50
2017,08,02,14,50,33.50
2017,08,02,14,51,33.60
2017,08,02,14,52,33.60
2017,08,02,14,53,33.60
2017,08,02,14,54,33.60
2017,08,02,14,55,33.60
2017,08,02,14,56,33.60
2017,08,02,14,57,33.60
2017,08,02,14,58,33.60
2017,08,02,14,59,33.60
2017,08,02,15,00,33.70
2017,08,02,15,01,33.80
2017,08,02,15,02,33.80
2017,08,02,15,03,33.70
2017,08,02,15,04,33.70
2017,08,02,15,05,33.70
2017,08,02,15,06,33.80
2017,08,02,15,07,33.80
2017,08,02,15,08,33.80
2017,08,02,15,09,33.80
2017,08,02,15,10,33.80
2017,08,02,15,11,33.80
2017,08,02,15,12,33.90
2017,08,02,15,13,33.90
2017,08,02,15,14,33.90
2017,08,02,15,15,34.00
2017,08,02,15,16,34.00
2017,08,02,15,17,34.10
2017,08,02,15,18,34.10
2017,08,02,15,19,34.20
2017,08,02,15,20,34.20
2017,08,02,15,21,34.20
2017,08,02,15,22,34.20
2017,08,02,15,23,34.20
2017,08,02,15,24,34.20
2017,08,02,15,25,34.20
2017,08,02,15,26,34.20
2017,08,02,15,27,34.20
2017,08,02,15,28,34.20
2017,08,02,15,29,34.20
2017,08,02,15,30,34.20
2017,08,02,15,31,34.20
2017,08,02,15,32,34.30
2017,08,02,15,33,34.30
2017,08,02,15,34,34.30
2017,08,02,15,35,34.30
2017,08,02,15,36,34.30
2017,08,02,15,37,34.30
2017,08,02,15,38,34.40
2017,08,02,15,39,34.50
2017,08,02,15,40,34.40
2017,08,02,15,41,34.50
2017,08,02,15,42,34.50
2017,08,02,15,43,34.50
2017,08,02,15,44,34.50
2017,08,02,15,45,34.50
2017,08,02,15,46,34.50
2017,08,02,15,47,34.60
2017,08,02,15,48,34.60
2017,08,02,15,49,34.60
2017,08,02,15,50,34.60
2017,08,02,15,51,34.60
2017,08,02,15,52,34.60
2017,08,02,15,53,34.60
2017,08,02,15,54,34.70
2017,08,02,15,55,34.70
2017,08,02,15,56,34.70
2017,08,02,15,57,34.70
2017,08,02,15,58,34.70
2017,08,02,15,59,34.70
2017,08,02,16,00,34.70
2017,08,02,16,01,34.70
2017,08,02,16,02,34.70
2017,08,02,16,03,34.70
2017,08,02,16,04,34.70
2017,08,02,16,05,34.60
2017,08,02,16,06,34.60
2017,08,02,16,07,34.60
2017,08,02,16,08,34.60
2017,08,02,16,09,34.60
2017,08,02,16,10,34.60
2017,08,02,16,11,34.60
2017,08,02,16,12,34.70
2017,08,02,16,13,34.70
2017,08,02,16,14,34.70
2017,08,02,16,15,34.80
2017,08,02,16,16,34.80
2017,08,02,16,17,34.80
2017,08,02,16,18,34.80
2017,08,02,16,19,34.70
2017,08,02,16,20,34.70
2017,08,02,16,21,34.70
2017,08,02,16,22,34.70
2017,08,02,16,23,34.80
2017,08,02,16,24,34.70
2017,08,02,16,25,34.70
2017,08,02,16,26,34.70
2017,08,02,16,27,34.60
2017,08,02,16,28,34.50
2017,08,02,16,29,34.50
2017,08,02,16,30,34.50
2017,08,02,16,31,34.50
2017,08,02,16,32,34.50
2017,08,02,16,33,34.60
2017,08,02,16,34,34.50
2017,08,02,16,35,34.50
2017,08,02,16,36,34.40
2017,08,02,16,37,34.40
2017,08,02,16,38,34.40
2017,08,02,16,39,34.30
2017,08,02,16,40,34.30
2017,08,02,16,41,34.30
2017,08,02,16,42,34.30
2017,08,02,16,43,34.30
2017,08,02,16,44,34.20
2017,08,02,16,45,34.20
2017,08,02,16,46,34.20
2017,08,02,16,47,34.20
2017,08,02,16,48,34.20
2017,08,02,16,49,34.20
2017,08,02,16,50,34.30
2017,08,02,16,51,34.30
2017,08,02,16,52,34.30
2017,08,02,16,53,34.20
2017,08,02,16,54,34.20
2017,08,02,16,55,34.10
2017,08,02,16,56,34.10
2017,08,02,16,57,34.10
2017,08,02,16,58,34.10
2017,08,02,16,59,34.10
2017,08,02,17,00,34.10
2017,08,02,17,01,34.00
2017,08,02,17,02,34.00
2017,08,02,17,03,33.90
2017,08,02,17,04,33.90
2017,08,02,17,05,33.90
2017,08,02,17,06,33.90
2017,08,02,17,07,33.90
2017,08,02,17,08,33.90
2017,08,02,17,09,33.90
2017,08,02,17,10,33.90
2017,08,02,17,11,33.90
2017,08,02,17,12,33.90
2017,08,02,17,13,33.80
2017,08,02,17,14,33.80
2017,08,02,17,15,33.80
2017,08,02,17,16,33.80
2017,08,02,17,17,33.80
2017,08,02,17,18,33.80
2017,08,02,17,19,33.70